Torna al catalogo

STARLINK-37563

AttivoComunicazioniVLEO
NORAD 69457·PAYLOAD·🇺🇸 United States

Lanciato Jun 8, 2026 da Cape Canaveral Space Force Station

Loading…

Prossimi Passaggi (prossime 24 ore)

TLE

AggiornatoSource: CelesTrak SupGP

Epoca: Sep 15, 2026, 04:02 UTC

1 69457C 26127Q   26258.16854167 -.00033238  00000+0 -98207-3 0  2587
2 69457  53.1584 190.9746 0001288  88.7847 103.9423 15.34405620    19

Traccia STARLINK-37563 in tempo reale con AllMySat

Download on the App Store